Вернуться в каталог

STARLINK-32480

АктивенСвязьVLEO
NORAD 62039·PAYLOAD·🇺🇸 United States

Запущен Nov 21, 2024 с Cape Canaveral Space Force Station

Loading…

Ближайшие Пролёты (ближайшие 24 часа)

TLE

СвежийSource: CelesTrak SupGP

Эпоха: Sep 15, 2026, 02:47 UTC

1 62039C 24216H   26258.11645833 -.00012861  00000+0 -46591-3 0  2584
2 62039  42.9994 266.7431 0001388 266.7154  93.9603 15.27579661    19

Отслеживайте STARLINK-32480 в реальном времени с AllMySat

Download on the App Store